Meteógrafos Informações Meteorológicas em tempo real
Aeroporto Santarém
15-12-2019 23:56

Temperatura atual: 25 graus 77 F    Umidade relativa: 100 %
Velocidade do vento: 00 nós 0 Km/h    Direção: 000 graus N
Ajuste do altímetro ..: 1011 HPA
Visibilidade: Ótima    Tempo presente: Céu Limpo

Observação
Data Hora BRTTempo°CUmidadePressãoVentoVisib.
15/12 - 23:56   Céu Limpo 25° 100% 1011 Norte/0 km/h OK
15/12 - 22:56   Céu Limpo 25° 100% 1011 Norte/0 km/h OK
15/12 - 21:56   Trovoadas na vizinhança 25° 100% 1010 Sul/7 km/h OK
15/12 - 20:56   Trovoadas na vizinhança 26° 94% 1009 Norte/0 km/h OK
15/12 - 19:56   Trovoadas 26° 94% 1009 Oeste/3 km/h OK
15/12 - 18:56   Não Disponível 28° 83% 1008 Oeste-noroeste/5 km/h OK
15/12 - 17:55   Trovoada recente 29° 74% 1008 Norte-noroeste/7 km/h OK
15/12 - 16:56   Trovoadas 28° 79% 1009 Norte/9 km/h OK
15/12 - 15:56   Não Disponível 28° 79% 1009 Norte-noroeste/10 km/h OK
15/12 - 14:56   Poucas nuvens esparsas 28° 79% 1010 Noroeste/9 km/h OK
15/12 - 13:56   Nuvens esparsas 28° 79% 1011 Norte/10 km/h OK
15/12 - 12:56   Parcialmente Nublado 27° 83% 1012 Noroeste/7 km/h OK
15/12 - 11:56   Parcialmente Nublado 26° 94% 1013 Oeste-noroeste/9 km/h OK
15/12 - 10:56   Parcialmente Nublado 25° 94% 1013 Oeste-sudoeste/3 km/h OK
15/12 - 09:56   Chovendo fraco 24° 100% 1013 Sul-sudoeste/5 km/h OK
15/12 - 08:56   Chovendo fraco 24° 94% 1011 Oeste-noroeste/1 km/h OK
15/12 - 07:56   Chovendo fraco 23° 100% 1011 Sul/3 km/h OK
15/12 - 06:56   Chovendo fraco 23° 100% 1010 Sudoeste/5 km/h 7000
15/12 - 05:56   Chovendo fraco 23° 94% 1010 Este-nordeste/7 km/h 6000
15/12 - 04:56   Chovendo fraco 24° 100% 1010 Sul/7 km/h 6000
15/12 - 03:56   Chovendo fraco 25° 100% 1010 Leste/14 km/h 5000
15/12 - 02:56   Chuva fraca e trovoadas 25° 100% 1010 Leste/18 km/h 5000
15/12 - 01:56   Trovoadas 25° 94% 1010 Sul/7 km/h OK
15/12 - 00:56   Chovendo na vizinhança 25° 94% 1010 Sul/5 km/h OK

Termo de Uso  |   Links Úteis  |   Imprensa  |  Anuncie  |  Fale Conosco  |  Versão Celular  |   Política de Privacidade

Apolo11.com - Todos os direitos reservados - 2000 - 2019

"Existem velas que iluminam tudo, menos o próprio candelabro" - Hebbel